BEIDOU-3 M8 (C30)

Last updated on Jan. 18, 2020, 4:39 a.m. UTC

1 43246U 18029B   20017.43103685 -.00000070  00000-0  10000-3 0  9991
2 43246  55.2745  20.6412 0005494 316.6286 221.1205  1.86232785 12253
UTC
Height (km)
Latitude
Longitude
Inclination
Orbital Period
UTC large
Height (km)
Speed (km/s)
/
Latitude / Longitude
Inclination (degrees)
Orbital Period (minutes)
Azimuth
Elevation
Range (km)
Doppler Factor
iOS Compass Heading
iOS Angle

Next 30 passes for location: Hong Kong

Rise time Rise Azimuth (degrees) Set time Set Azimuth (degrees) Duration Max altitude (degrees)

No matching passes for this satellites